Location: Lango�lan
(48.1202°N, 3.2340°W)
Time: 06:56:18
(UTC+00:00)

Cosmos 1602 Rocket - Pass Details

Date: 23 October 2019
Orbit: 604 x 633 km, 82.5° (Epoch: 21 November)

Event Time Altitude Azimuth Distance (km) Brightness Sun altitude
Rises 06:07:20 0° 204° (SSW) 2,854 6.8 -6.8°
Reaches altitude 10° 06:09:37 10° 210° (SSW) 1,953 5.9 -6.4°
Maximum altitude 06:13:46 46° 284° (WNW) 825 3.8 -5.7°
Drops below altitude 10° 06:17:57 10° 358° (N) 1,964 6.0 -5.0°
Sets 06:20:16 0° 5° (N) 2,873 6.9 -4.6°
